Regional Weather Roundup
Issued by NWS

Home | Current Version | Previous Version | Text Only | Print | Product List | Glossary On
Versions: 1 2 3 4 5 6 7 8 9 10 11 12 13 14 15 16 17 18 19 20 21 22 23 24 25 26 27 28 29 30 31 32 33 34 35 36 37 38 39 40 41 42 43 44 45 46 47 48 49 50
000
ASUS42 KFFC 232110
RWRGA
WEATHER ROUNDUP FOR GEORGIA
NATIONAL WEATHER SERVICE PEACHTREE CITY GA
500 PM EDT SAT SEP 23 2017

NOTE: "FAIR" INDICATES FEW OR NO CLOUDS BELOW 12,000 FEET WITH NO
SIGNIFICANT WEATHER AND/OR OBSTRUCTIONS TO VISIBILITY.

* = USE WITH CAUTION. THE STATIONS MARKED WITH AN ASTERISK MAY NOT
REPORT WEATHER SUCH AS PRECIPITATION, FOG, OR THUNDER AND ARE NOT
QUALITY CONTROLLED BY NWS.

THE REMARK "TC" DENOTES TEMPERATURE READING IN DEGREES CELSIUS.

GAZ001>058-232200-
NORTH GEORGIA

CITY           SKY/WX    TMP DP  RH WIND       PRES   REMARKS
ATLANTA        MOSUNNY   86  60  41 SE9       30.01F
ATHENS         SUNNY     87  64  46 VRB3      30.00F
CHAMBLEE       MOSUNNY   86  60  41 VRB5      30.01F
PEACHTREE CITY MOSUNNY   88  61  40 E8        30.00F
ROME           MOSUNNY   84  69  60 SE9       29.98F
WEST ATLANTA   SUNNY     88  62  41 E9        30.00F
GAINESVILLE    SUNNY     85  59  41 E8        30.05F
CARTERSVILLE   PTSUNNY   82  66  58 N8        30.01S


CITY           SKY/WX    TMP DP  RH WIND       PRES   REMARKS
DALTON*        MOSUNNY   77  68  73 SE7       30.03S
LAWRENCEVILLE* MOSUNNY   86  63  45 E9        30.03F
MARIETTA       MOSUNNY   86  60  41 E8        30.01F
KENNESAW*      PTSUNNY   87  63  44 E7        30.02F
CANTON*        MOSUNNY   77  63  61 NW6       30.06R
$$

GAZ059>098-102>109-232200-
CENTRAL GEORGIA

CITY           SKY/WX    TMP DP  RH WIND       PRES   REMARKS
AUGUSTA-BUSH   MOSUNNY   91  65  41 E9        29.97F HX  93
AUGUSTA-DANIEL MOSUNNY   89  62  40 E6        29.99F
COLUMBUS       MOSUNNY   88  63  43 SE14      29.96F
MACON          MOSUNNY   86  65  49 E10       29.97F
ROBINS AFB     MOSUNNY   87  66  49 NE7       29.96F


CITY           SKY/WX    TMP DP  RH WIND       PRES   REMARKS
LAGRANGE*      MOSUNNY   89  64  44 E6        29.99F HX  90
SYLVANIA*      MOSUNNY   84  72  67 E6        29.99F HX  90
MILLEDGEVILLE* SUNNY     90  64  43 E5        29.98F HX  91
$$

GAZ099>101-110>166-232200-
SOUTH GEORGIA

CITY           SKY/WX    TMP DP  RH WIND       PRES   REMARKS
SAVANNAH       MOSUNNY   86  69  56 E12       29.97F HX  90
VALDOSTA       PTSUNNY   83  69  62 NE7       29.92F
ALMA           CLOUDY    83  69  62 NE7G17    29.96S
ST SIMONS      PTSUNNY   83  74  74 NE16      29.95F
FT STEWART     SUNNY     82  72  71 N8        29.96S
ALBANY         MOSUNNY   89  65  44 NE8       29.96F HX  91
HUNTER AFB     SUNNY     84  69  60 NE12      29.95S
MOODY AFB      PTSUNNY   84  68  58 NE7       29.92F
BRUNSWICK      PTSUNNY   79  70  73 NE14G20   29.97S


CITY           SKY/WX    TMP DP  RH WIND       PRES   REMARKS
BAINBRIDGE*    SUNNY     91  72  52 E10       29.93S HX  98
MOULTRIE*      MOSUNNY   88  64  45 NE7       29.94F
VIDALIA*       MOSUNNY   86  68  54 E12       29.97F
WAYCROSS*      CLOUDY    85  67  54 E10       29.95S
DOUGLAS*       CLOUDY    82  68  61 E9        29.97S
$$




USA.gov is the U.S. government's official web portal to all federal, state and local government web resources and services.